User: anonymous   Login
Location: Prague
(50.0830°N, 14.4670°E)
Time: 20:21:17
(UTC+01:00)
Language:

DUCHIFAT 1 - Orbit

View from above orbital plane
View from above orbital plane
View from above satellite
View from above satellite

Ground track
Ground track

The orbit data is extracted from the following two-line orbital elements,

1 40021U 14033M   21341.08638310  .00000932  00000-0  98443-4 0  9994
2 40021  97.9909 283.2806 0011893 321.2306  38.8058 14.91682250406011
Epoch (UTC): 07 December 2021 02:04:23
Eccentricity: 0.0011893
inclination: 97.9909°
perigee height: 584 km
apogee height: 601 km
right ascension of ascending node: 283.2806°
argument of perigee: 321.2306°
revolutions per day: 14.91682250
mean anomaly at epoch: 38.8058°
orbit number at epoch: 40601

The dashed part of the orbit path shows where the satellite is in the earth's shadow,  

DLR